Time,TemperatureF,DewpointF,PressureIn,WindDirection,WindDirectionDegrees,WindSpeedMPH,WindSpeedGustMPH,Humidity,HourlyPrecipIn,Conditions,Clouds,dailyrainin,SoftwareType,DateUTC
2013-10-26 01:52:00,29.0,-99.9,29.87,SSW,202,5.0,7.0,0,-99.99,,,0.00,,2013-10-26 05:52:00,
2013-10-26 02:02:00,29.0,-99.9,29.87,SSW,202,5.0,7.0,0,-99.99,,,0.00,,2013-10-26 06:02:00,
2013-10-26 02:52:00,29.0,-99.9,29.87,SW,225,5.0,8.0,0,-99.99,,,0.00,,2013-10-26 06:52:00,
2013-10-26 03:02:00,29.0,-99.9,29.87,SW,225,5.0,8.0,0,-99.99,,,0.00,,2013-10-26 07:02:00,
2013-10-26 03:52:00,29.0,-99.9,29.88,West,270,5.0,8.0,0,-99.99,,,0.00,,2013-10-26 07:52:00,
2013-10-26 04:02:00,29.0,-99.9,29.88,West,270,5.0,8.0,0,-99.99,,,0.00,,2013-10-26 08:02:00,
2013-10-26 04:52:00,26.0,-99.9,29.87,SW,225,3.0,7.0,0,-99.99,,,0.00,,2013-10-26 08:52:00,
2013-10-26 05:02:00,26.0,-99.9,29.87,SW,225,3.0,7.0,0,-99.99,,,0.00,,2013-10-26 09:02:00,
2013-10-26 05:03:00,27.0,-99.9,29.88,South,180,3.0,7.0,0,-99.99,,,0.00,,2013-10-26 09:03:00,
2013-10-26 05:54:00,27.0,-99.9,29.88,South,180,3.0,7.0,0,-99.99,,,0.00,,2013-10-26 09:54:00,
2013-10-26 06:03:00,27.0,-99.9,29.88,WNW,292,5.0,8.0,0,-99.99,,,0.00,,2013-10-26 10:03:00,
2013-10-26 06:53:00,27.0,-99.9,29.88,WNW,292,5.0,8.0,0,-99.99,,,0.00,,2013-10-26 10:53:00,
2013-10-26 07:52:00,26.0,-99.9,29.89,WSW,247,3.0,7.0,0,-99.99,,,0.00,,2013-10-26 11:52:00,
2013-10-26 08:01:00,26.0,-99.9,29.89,WSW,247,3.0,7.0,0,-99.99,,,0.00,,2013-10-26 12:01:00,
2013-10-26 08:52:00,27.0,-99.9,29.91,WSW,247,6.0,8.0,0,-99.99,,,0.00,,2013-10-26 12:52:00,
2013-10-26 09:01:00,27.0,-99.9,29.91,WSW,247,6.0,8.0,0,-99.99,,,0.00,,2013-10-26 13:01:00,
2013-10-26 09:52:00,30.0,-99.9,29.91,WSW,247,4.0,9.0,0,-99.99,,,0.00,,2013-10-26 13:52:00,
2013-10-26 10:02:00,30.0,-99.9,29.91,WSW,247,4.0,9.0,0,-99.99,,,0.00,,2013-10-26 14:02:00,
2013-10-26 10:52:00,34.0,-99.9,29.89,NNW,337,5.0,10.0,0,-99.99,,,0.00,,2013-10-26 14:52:00,
2013-10-26 11:02:00,34.0,-99.9,29.89,NNW,337,5.0,10.0,0,-99.99,,,0.00,,2013-10-26 15:02:00,
2013-10-26 11:03:00,37.0,-99.9,29.88,North,360,5.0,12.0,0,-99.99,,,0.00,,2013-10-26 15:03:00,
2013-10-26 11:55:00,37.0,-99.9,29.88,North,360,5.0,12.0,0,-99.99,,,0.00,,2013-10-26 15:55:00,
2013-10-26 12:03:00,41.0,-99.9,29.86,West,270,8.0,15.0,0,-99.99,,,0.00,,2013-10-26 16:03:00,
2013-10-26 12:54:00,41.0,-99.9,29.86,West,270,8.0,15.0,0,-99.99,,,0.00,,2013-10-26 16:54:00,
2013-10-26 13:52:00,41.0,-99.9,29.84,SW,225,11.0,19.0,0,-99.99,,,0.00,,2013-10-26 17:52:00,
2013-10-26 14:02:00,41.0,-99.9,29.84,SW,225,11.0,19.0,0,-99.99,,,0.00,,2013-10-26 18:02:00,
2013-10-26 14:52:00,41.0,-99.9,29.82,South,180,7.0,17.0,0,-99.99,,,0.00,,2013-10-26 18:52:00,
2013-10-26 15:02:00,41.0,-99.9,29.82,South,180,7.0,17.0,0,-99.99,,,0.00,,2013-10-26 19:02:00,
2013-10-26 15:52:00,41.0,-99.9,29.80,SW,225,10.0,17.0,0,-99.99,,,0.00,,2013-10-26 19:52:00,
2013-10-26 16:02:00,41.0,-99.9,29.80,SW,225,10.0,17.0,0,-99.99,,,0.00,,2013-10-26 20:02:00,
2013-10-26 16:43:00,40.0,-99.9,29.79,SW,225,11.0,16.0,0,-99.99,,,0.00,,2013-10-26 20:43:00,
2013-10-26 16:52:00,40.0,-99.9,29.79,SW,225,11.0,16.0,0,-99.99,,,0.00,,2013-10-26 20:52:00,
2013-10-26 17:02:00,40.0,-99.9,29.79,SW,225,11.0,16.0,0,-99.99,,,0.00,,2013-10-26 21:02:00,
2013-10-26 17:03:00,38.0,-99.9,29.78,SSW,202,5.0,22.0,0,-99.99,,,0.00,,2013-10-26 21:03:00,
2013-10-26 17:55:00,38.0,-99.9,29.78,SSW,202,5.0,22.0,0,-99.99,,,0.00,,2013-10-26 21:55:00,
2013-10-26 18:03:00,36.0,-99.9,29.78,SSW,202,10.0,22.0,0,-99.99,,,0.00,,2013-10-26 22:03:00,
2013-10-26 18:44:00,36.0,-99.9,29.78,SSW,202,10.0,22.0,0,-99.99,,,0.00,,2013-10-26 22:44:00,
2013-10-26 18:54:00,36.0,-99.9,29.78,SSW,202,10.0,22.0,0,-99.99,,,0.00,,2013-10-26 22:54:00,
2013-10-26 19:42:00,34.0,-99.9,29.78,SSE,157,5.0,13.0,0,-99.99,,,0.00,,2013-10-26 23:42:00,
2013-10-26 19:52:00,34.0,-99.9,29.78,SSE,157,5.0,13.0,0,-99.99,,,0.00,,2013-10-26 23:52:00,
2013-10-26 20:02:00,34.0,-99.9,29.78,SSE,157,5.0,13.0,0,-99.99,,,0.00,,2013-10-27 00:02:00,
2013-10-26 20:52:00,33.0,-99.9,29.77,SW,225,5.0,12.0,0,-99.99,,,0.00,,2013-10-27 00:52:00,
2013-10-26 21:02:00,33.0,-99.9,29.77,SW,225,5.0,12.0,0,-99.99,,,0.00,,2013-10-27 01:02:00,
2013-10-26 21:42:00,34.0,-99.9,29.75,South,180,5.0,15.0,0,-99.99,,,0.00,,2013-10-27 01:42:00,
2013-10-26 21:52:00,34.0,-99.9,29.75,South,180,5.0,15.0,0,-99.99,,,0.00,,2013-10-27 01:52:00,
2013-10-26 22:02:00,34.0,-99.9,29.75,South,180,5.0,15.0,0,-99.99,,,0.00,,2013-10-27 02:02:00,
2013-10-26 22:52:00,35.0,-99.9,29.74,SSW,202,7.0,16.0,0,-99.99,,,0.00,,2013-10-27 02:52:00,
2013-10-26 23:02:00,35.0,-99.9,29.74,SSW,202,7.0,16.0,0,-99.99,,,0.00,,2013-10-27 03:02:00,
2013-10-26 23:03:00,-999.0,-99.9,29.72,SSW,202,4.0,13.0,-999,-99.99,,,-99.99,,2013-10-27 03:03:00,
2013-10-26 23:55:00,35.0,-99.9,29.72,SSW,202,4.0,13.0,0,-99.99,,,0.00,,2013-10-27 03:55:00,